User: anonymous   Login
Location: *
(45.9500°N, 9.0833°E)
Time: 15:40:21
(UTC+00:00)
Language:

Ariane Rocket - Orbit

View from above orbital plane
View from above orbital plane
View from above satellite
View from above satellite

Ground track
Ground track

The orbit data is extracted from the following two-line orbital elements,

1 23561U 95021B   21131.74653807  .00000040  00000-0  28061-4 0  9997
2 23561  98.6776 181.1874 0006943  10.6703  99.1987 14.38024393365757
Epoch (UTC): 11 May 2021 17:55:00
Eccentricity: 0.0006943
inclination: 98.6776°
perigee height: 760 km
apogee height: 770 km
right ascension of ascending node: 181.1874°
argument of perigee: 10.6703°
revolutions per day: 14.38024393
mean anomaly at epoch: 99.1987°
orbit number at epoch: 36575

The dashed part of the orbit path shows where the satellite is in the earth's shadow,  

DLR